HAWK-4C

Last updated on Fri Dec 29 2023 00:03:29 GMT+0000 (Coordinated Universal Time)

1 52170U 22033P 23362.20597808 .00012960 00000+0 40865-3 0 9993 2 52170 97.3426 80.7121 0009482 181.8558 178.2651 15.32967153 96913

Satellite not in orbit

HAWK-4C